{"data":{"norad_id":59746,"intl_designator":"2024-090S","name":"STARLINK-31681","alt_names":[],"object_type":"PAYLOAD","status":"ACTIVE","operator":null,"country":"US","launch_date":"2024-05-13","launch_site_code":"AFETR","launch_vehicle":null,"mission":null,"orbit_class":"UNKNOWN","rcs_meters":null,"size_class":null,"mass_kg":null,"dimensions":null,"purposes":["comms"],"wikipedia_slug":null,"has_3d_model":false,"image_url":null,"decayed_at":null,"tle_current":{"epoch":"2026-05-24T22:49:58.311840Z","epoch_age_seconds":82544,"freshness":"FRESH","line1":"1 59746U 24090S   26144.95136935 -.00000282  00000+0 -73193-6 0  9996","line2":"2 59746  43.0034 105.8632 0001361 270.1039  89.9657 15.27574088115182","mean_motion":15.27574088,"eccentricity":0.0001361,"inclination_deg":43.0034,"raan_deg":105.8632,"arg_perigee_deg":270.1039,"mean_anomaly_deg":89.9657,"bstar":-7.3193e-7,"rev_number":11518,"period_min":94.267113543759,"perigee_km":482.13298891457,"apogee_km":484.00060858859,"semimajor_km":6861.2037987516,"source":"CELESTRAK","updated_at":"2026-05-25T13:38:19.053827Z"}}}